1273449627464,3.04309
1273449687464,3.03028
1273449747464,3.02156
1273449807464,3.01864
1273449867464,3.02392
1273449927464,3.02565
1273449987464,3.02323
1273450047463,3.03177
1273450107463,3.02679
1273450167463,3.05318
1273450227463,3.03731
1273450287463,3.03565
1273450347464,3.03740
1273450407464,3.03032
1273450467464,3.03633
1273450527464,3.04715
1273450587464,3.02444
1273450647464,3.04234
1273450707464,3.02076
1273450767464,3.02773
1273450827464,3.05646
1273450887464,3.04617
1273450947464,3.02428
1273451007464,3.03295
1273451067464,3.04154
1273451127464,3.05958
1273451187464,3.05545
1273451247464,3.06105
1273451307464,3.07102
1273451367464,3.04024
1273451427463,3.06847
1273451487463,3.04293
1273451547463,3.07236
1273451607463,3.04865
1273451667463,3.07986
1273451727464,3.01787
1273451787464,3.04797
1273451847464,3.01923
1273451907464,3.05184
1273451967464,3.02397
1273452027464,3.01145
1273452087464,3.03899
1273452147464,3.03648
1273452207464,3.01669
1273452267464,3.05078
1273452327464,3.03116
1273452387464,3.00751
1273452447464,3.01335
1273452507464,3.03857
1273452567464,3.00062
1273452627464,3.02180
1273452687464,3.03961
1273452747463,2.99213
1273452807463,3.07184
1273452867463,3.04557
1273452927463,3.01915
1273452987463,3.02231
1273453047464,3.03116
1273453107464,3.02924
1273453167464,3.02275
1273453227473,3.00928
1273453287473,3.01238
1273453347473,3.02106
1273453407473,3.00692
1273453467473,3.01830
1273453527473,3.01911
1273453587473,3.01430
1273453647473,3.00636
1273453707473,3.00502
1273453767473,2.99714
1273453827473,3.01797
1273453887473,2.99479
1273453947473,2.99591
1273454007473,3.01081
1273454067473,3.02565
1273454127473,3.00932
1273454187473,3.02968
1273454247473,3.03507
1273454307473,3.00278
1273454367473,2.98841
1273454427473,3.01200
1273454487473,2.97991
1273454547473,2.99449
1273454607473,3.02765
1273454667473,3.01508
1273454727473,3.03765
1273454787473,3.02359
1273454847473,3.00493
1273454907473,3.01235
1273454967473,3.03449
1273455027473,3.01170
1273455087473,3.00301
1273455147473,2.99851
1273455207473,2.99979
1273455267473,3.02186
1273455327473,3.03747
1273455387473,3.01821
1273455447473,2.99999
1273455507473,3.00826
1273455567473,3.00640
1273455627473,2.98943
1273455687473,3.01079
1273455747473,3.04964
1273455807473,3.02403
1273455867473,3.01789
1273455927473,3.02201
1273455987473,3.03038
1273456047473,2.98316
1273456107473,3.02932
1273456167473,3.00298
1273456227473,3.02743
1273456287473,3.02306
1273456347473,2.98394
1273456407473,3.01737
1273456467473,3.02218
1273456527473,3.05396
1273456587473,3.03785
1273456647473,2.99357
1273456707473,3.03012
1273456767473,3.03484
1273456827483,3.02885
1273456887483,3.01729
1273456947483,3.03577
1273457007483,2.99789
1273457067483,2.96723
1273457127483,3.00978
1273457187483,2.99162
1273457247483,3.03004
1273457307483,3.00890
1273457367483,3.01729
1273457427483,2.99801
1273457487483,2.99752
1273457547483,3.01418
1273457607483,3.04164
1273457667483,3.00315
1273457727483,3.00476
1273457787483,3.02639
1273457847483,2.99403
1273457907483,3.03044
1273457967483,3.02485
1273458027483,3.01895
1273458087483,3.00587
1273458147483,3.01218
1273458207483,3.01472
1273458267483,3.02923
1273458327483,3.01438
1273458387483,3.01095
1273458447483,3.01681
1273458507483,3.02022
1273458567483,3.02865
1273458627483,3.02601
1273458687483,3.03679
1273458747483,3.02995
1273458807483,3.03138
1273458867483,2.98850
1273458927483,3.00859
1273458987483,3.00311
1273459047483,2.98850
1273459107483,3.01758
1273459167483,3.02335
1273459227483,2.99992
1273459287483,3.02945
1273459347483,3.00459
1273459407483,3.04235
1273459467483,3.00750
1273459527483,3.01008
1273459587483,3.01759
1273459647483,3.00522
1273459707483,2.97980
1273459767483,3.00548
1273459827483,3.02794
1273459887483,3.02771
1273459947483,2.99631
1273460007483,3.03555
1273460067483,3.00256
1273460127483,3.02662
1273460187483,3.01804
1273460247483,3.03541
1273460307483,3.03099
1273460367483,2.99472
1273460427492,3.01070
1273460487492,3.00082
1273460547492,3.03084
1273460607492,3.06157
1273460667492,3.03681
1273460727492,3.01389
1273460787492,3.01825
1273460847492,3.00688
1273460907492,3.00310
1273460967492,3.00202
1273461027492,3.02175
1273461087492,3.03579
1273461147492,3.00740
1273461207492,3.03426
1273461267492,3.03050
1273461327492,3.03874
1273461387492,2.99531
1273461447492,3.03941
1273461507492,3.03561
1273461567492,3.00764
1273461627492,3.04111
1273461687492,3.03237
1273461747492,3.02824
1273461807492,3.01795
1273461867492,3.02009
1273461927492,3.00104
1273461987492,3.02401
1273462047492,3.04699
1273462107492,3.04047
1273462167492,3.01716
1273462227492,3.03395
1273462287492,3.01923
1273462347492,3.02690
1273462407492,3.03869
1273462467492,3.03468
1273462527492,3.02252
1273462587492,3.04597
1273462647492,3.01335
1273462707492,3.00010
1273462767492,3.02316
1273462827492,3.00537
1273462887492,3.00317
1273462947492,3.03095
1273463007492,3.00461
1273463067492,3.02492
1273463127492,3.02438
1273463187492,2.98315
1273463247492,3.02891
1273463307492,3.02553
1273463367492,3.00841
1273463427492,3.02693
1273463487492,3.00321
1273463547492,3.02134
1273463607492,3.04575
1273463667492,3.00910
1273463727492,3.02134
1273463787492,3.01661
1273463847492,3.03028
1273463907492,3.03750
1273463967492,3.02664
1273464027501,3.00853
1273464087501,2.98131
1273464147501,3.01296
1273464207501,2.99162
1273464267501,2.99464
1273464327501,3.02228
1273464387501,3.02195
1273464447501,2.99367
1273464507501,3.01973
1273464567501,2.99060
1273464627501,2.99263
1273464687501,3.00837
1273464747501,3.00755
1273464807501,3.00100
1273464867501,2.99703
1273464927501,3.00697
1273464987501,3.00188
1273465047501,3.02508
1273465107501,3.01438
1273465167501,2.97663
1273465227501,2.98902
1273465287501,3.00099
1273465347501,2.99249
1273465407501,3.01738
1273465467501,3.01051
1273465527501,2.98171
1273465587501,2.99805
1273465647501,2.99671
1273465707501,3.01423
1273465767501,2.98585
1273465827501,2.97798
1273465887501,2.99557
1273465947501,2.99202
1273466007501,3.00780
1273466067501,2.97589
1273466127501,2.99621
1273466187501,2.96738
1273466247501,2.99823
1273466307501,2.99721
1273466367501,2.98147
1273466427501,3.01001
1273466487501,2.99951
1273466547501,2.98198
1273466607501,2.99207
1273466667501,3.00021
1273466727501,2.98320
1273466787501,2.98463
1273466847501,2.99678
1273466907501,2.97113
1273466967501,2.98871
1273467027501,2.96135
1273467087501,2.97312
1273467147501,3.00772
1273467207501,2.97658
1273467267501,2.95597
1273467327501,3.01443
1273467387501,2.99310
1273467447501,3.00930
1273467507501,3.01373
1273467567501,2.97225
1273467627510,2.99960
1273467687510,3.00226
1273467747510,2.99486
1273467807510,2.99109
1273467867510,2.95795
1273467927510,2.99840
1273467987510,3.01200
1273468047510,2.96931
1273468107510,2.97412
1273468167510,2.99685
1273468227510,2.97699
1273468287510,3.00198
1273468347510,2.99957
1273468407510,2.96408
1273468467510,2.97509
1273468527510,2.98761
1273468587510,2.98045
1273468647510,2.97352
1273468707510,2.97138
1273468767510,2.97803
1273468827510,2.97635
1273468887510,2.97357
1273468947510,2.97089
1273469007510,2.97138
1273469067510,2.95762
1273469127510,2.97541
1273469187510,2.99773
1273469247510,2.97534
1273469307510,2.97841
1273469367510,3.00074
1273469427510,2.97128
1273469487510,2.98636
1273469547510,2.96739
1273469607510,2.98091
1273469667510,2.97487
1273469727510,2.96245
1273469787510,2.92564
1273469847510,3.00855
1273469907510,2.97407
1273469967510,2.98429
1273470027510,2.95177
1273470087510,2.96117
1273470147510,2.95749
1273470207510,2.96851
1273470267510,2.97797
1273470327510,2.97182
1273470387510,2.97274
1273470447510,2.99502
1273470507510,2.95296
1273470567510,2.97280
1273470627510,2.97669
1273470687510,2.96860
1273470747510,2.97125
1273470807510,2.96921
1273470867510,2.96217
1273470927510,2.95288
1273470987510,2.98093
1273471047510,2.98666
1273471107510,2.96938
1273471167510,2.97408
1273471227519,2.96915
1273471287519,2.97453
1273471347519,2.99154
1273471407519,2.95724
1273471467519,2.97964
1273471527519,2.96051
1273471587519,2.96979
1273471647519,2.97539
1273471707519,2.94716
1273471767519,2.95374
1273471827519,2.94382
1273471887519,2.96808
1273471947519,2.96364
1273472007519,2.97978
1273472067519,2.94709
1273472127519,2.97078
1273472187519,2.98017
1273472247519,2.96603
1273472307519,2.94514
1273472367519,2.96584
1273472427519,2.99519
1273472487519,2.97435
1273472547519,2.97345
1273472607519,2.97877
1273472667519,2.96305
1273472727519,2.98632
1273472787519,2.99375
1273472847519,2.97047
1273472907519,2.95204
1273472967519,2.95800
1273473027519,2.97553
1273473087519,2.95885
1273473147519,3.00938
1273473207519,2.96976
1273473267519,2.96831
1273473327519,2.97262
1273473387519,2.94677
1273473447519,2.95315
1273473507519,2.97433
1273473567519,2.95933
1273473627519,2.97252
1273473687519,2.98942
1273473747519,2.99126
1273473807519,2.97709
1273473867519,2.96040
1273473927519,2.97945
1273473987519,2.99341
1273474047519,2.96049
1273474107519,2.98102
1273474167519,2.99186
1273474227519,2.95460
1273474287519,2.97583
1273474347519,2.97498
1273474407519,2.98830
1273474467519,2.96052
1273474527519,2.95162
1273474587519,2.93586
1273474647519,2.98339
1273474707519,2.95009
1273474767519,2.95797
1273474827528,2.96986
1273474887528,2.98706
1273474947528,2.98567
1273475007528,2.95734
1273475067528,2.97927
1273475127528,2.99213
1273475187528,2.99880
1273475247528,2.93393
1273475307528,2.95173
1273475367528,2.96703
1273475427528,2.99950
1273475487528,2.96956
1273475547528,2.95729
1273475607528,2.95649
1273475667528,2.99093
1273475727528,2.99206
1273475787528,2.94418
1273475847528,2.99668
1273475907528,2.94557
1273475967528,2.94921
1273476027528,2.98798
1273476087528,2.94194
1273476147528,2.96607
1273476207528,2.97591
1273476267528,2.94924
1273476327528,2.96606
1273476387528,2.96613
1273476447528,2.98141
1273476507528,2.94094
1273476567528,2.93518
1273476627528,2.94876
1273476687528,2.95648
1273476747528,2.95719
1273476807528,2.96390
1273476867528,2.96365
1273476927528,2.96393
1273476987528,2.96240
1273477047528,2.96679
1273477107528,2.95819
1273477167528,2.95478
1273477227528,2.96032
1273477287528,2.94149
1273477347528,2.94859
1273477407528,2.93716
1273477467528,2.94997
1273477527528,2.99092
1273477587528,2.96358
1273477647528,2.96393
1273477707528,2.93781
1273477767528,2.98252
1273477827528,2.97072
1273477887528,2.95664
1273477947528,2.95183
1273478007528,2.98663
1273478067528,2.96678
1273478127528,2.96699
1273478187528,2.96875
1273478247528,2.95854
1273478307528,2.96801
1273478367528,2.96350
1273478427537,2.93979
1273478487537,2.99170
1273478547537,2.95420
1273478607537,2.95895
1273478667537,2.93993
1273478727537,2.95912
1273478787537,2.97671
1273478847537,2.95254
1273478907537,2.95478
1273478967537,2.93220
1273479027537,2.96836
1273479087537,2.95748
1273479147537,2.97295
1273479207537,2.97367
1273479267537,2.96958
1273479327537,2.96251
1273479387537,2.95607
1273479447536,2.94891
1273479507536,2.95304
1273479567536,2.94754
1273479627536,2.93256
1273479687537,2.95793
1273479747537,2.99838
1273479807537,2.94043
1273479867537,2.94802
1273479927537,2.95844
1273479987537,2.95592
1273480047537,2.98078
1273480107537,2.94988
1273480167537,2.96352
1273480227537,2.95628
1273480287537,2.97949
1273480347537,2.96179
1273480407537,2.96244
1273480467537,2.95748
1273480527537,2.97730
1273480587537,2.95703
1273480647537,2.95626
1273480707537,2.94190
1273480767537,2.94409
1273480827536,2.94612
1273480887536,2.94620
1273480947536,2.96160
1273481007537,2.94769
1273481067537,2.95420
1273481127537,2.96003
1273481187537,2.94738
1273481247537,2.94100
1273481307537,2.94962
1273481367537,2.95995
1273481427537,2.93457
1273481487537,2.95849
1273481547537,2.97869
1273481607537,2.96099
1273481667537,2.94805
1273481727537,2.97405
1273481787537,2.95322
1273481847537,2.95066
1273481907537,2.95191
1273481967537,2.96362
1273482027545,2.97488
1273482087545,2.96179
1273482147545,2.93756
1273482207545,2.97026
1273482267545,2.93679
1273482327545,2.95128
1273482387545,2.92343
1273482447545,2.95127
1273482507545,2.93868
1273482567545,2.94867
1273482627545,2.98658
1273482687545,2.94753
1273482747545,2.93983
1273482807545,2.97280
1273482867545,2.95052
1273482927545,2.92526
1273482987545,2.93979
1273483047545,2.96091
1273483107545,2.94349
1273483167545,2.94371
1273483227545,2.95806
1273483287545,2.94291
1273483347545,2.92575
1273483407545,2.93661
1273483467545,2.95160
1273483527545,2.92867
1273483587545,2.96276
1273483647545,2.93310
1273483707545,2.95770
1273483767545,2.96340
1273483827545,2.94336
1273483887545,2.97369
1273483947545,2.94554
1273484007545,2.94831
1273484067545,2.94712
1273484127545,2.95267
1273484187545,2.94193
1273484247545,2.96128
1273484307545,2.95585
1273484367545,2.94224
1273484427545,3.03445
1273484487545,2.97235
1273484547545,2.97162
1273484607545,2.96206
1273484667545,2.90752
1273484727545,2.94541
1273484787545,2.93111
1273484847545,2.95794
1273484907545,2.94536
1273484967545,2.93426
1273485027545,2.96162
1273485087545,2.95465
1273485147545,2.96546
1273485207545,2.94632
1273485267545,2.93003
1273485327545,2.92490
1273485387545,2.95338
1273485447545,2.93898
1273485507545,2.94985
1273485567545,2.93689
1273485627554,2.96929
1273485687554,2.95293
1273485747554,2.94908
1273485807554,2.94768
1273485867554,2.96585
1273485927554,2.93745
1273485987554,2.94168
1273486047554,2.94436
1273486107554,2.94342
1273486167554,2.92106
1273486227554,2.94066
1273486287554,2.93241
1273486347554,2.92668
1273486407554,2.93477
1273486467554,2.97575
1273486527554,2.94140
1273486587554,2.92336
1273486647554,2.92967
1273486707554,2.92567
1273486767554,2.91151
1273486827554,2.93561
1273486887554,2.95014
1273486947554,2.93383
1273487007554,2.91190
1273487067554,2.93980
1273487127554,2.94417
1273487187554,2.95948
1273487247554,2.94970
1273487307554,2.94965
1273487367554,2.93254
1273487427554,2.95449
1273487487554,2.93040
1273487547554,2.96425
1273487607554,2.92364
1273487667554,2.92807
1273487727554,2.95085
1273487787554,2.92887
1273487847554,2.95578
1273487907554,2.90704
1273487967554,2.91103
1273488027554,2.89326
1273488087554,2.91418
1273488147554,2.92230
1273488207554,2.93346
1273488267554,2.92197
1273488327554,2.90766
1273488387554,2.95642
1273488447554,2.92308
1273488507554,2.92118
1273488567554,2.91827
1273488627554,2.88881
1273488687554,2.94622
1273488747554,2.91011
1273488807554,2.90474
1273488867554,2.92338
1273488927554,2.92363
1273488987554,2.92516
1273489047554,2.93644
1273489107554,2.90804
1273489167554,2.89496
1273489227563,2.92703
1273489287563,2.92764
1273489347563,2.95208
1273489407563,2.91597
1273489467563,2.92779
1273489527563,2.95228
1273489587563,2.94617
1273489647563,2.92635
1273489707563,2.94488
1273489767563,2.94169
1273489827563,2.93818
1273489887563,2.94665
1273489947563,2.96650
1273490007563,2.95003
1273490067563,2.93410
1273490127563,2.93255
1273490187563,2.92912
1273490247563,2.95061
1273490307563,2.94988
1273490367563,2.93324
1273490427563,2.95502
1273490487563,2.94842
1273490547563,2.93779
1273490607563,2.93622
1273490667563,2.91836
1273490727563,2.93882
1273490787563,2.93809
1273490847563,2.92563
1273490907563,2.91250
1273490967563,2.89528
1273491027563,2.91861
1273491087563,2.91926
1273491147563,2.89635
1273491207563,2.92204
1273491267563,2.91917
1273491327563,2.94055
1273491387563,2.94151
1273491447563,2.93688
1273491507563,2.94934
1273491567563,2.91344
1273491627563,2.94632
1273491687563,2.94407
1273491747563,2.89324
1273491807563,2.95620
1273491867563,2.91493
1273491927563,2.92011
1273491987563,2.93540
1273492047563,2.92190
1273492107563,2.91154
1273492167563,2.94045
1273492227563,2.91918
1273492287563,2.91556
1273492347563,2.92609
1273492407563,2.93907
1273492467563,2.92857
1273492527563,2.94004
1273492587563,2.93433
1273492647563,2.92888
1273492707563,2.93168
1273492767563,2.92570
1273492827572,2.91705
1273492887572,2.94141
1273492947572,2.92957
1273493007572,2.90564
1273493067572,2.92509
1273493127572,2.89903
1273493187572,2.91551
1273493247572,2.92812
1273493307572,2.94780
1273493367572,2.93499
1273493427572,2.89437
1273493487572,2.93545
1273493547572,2.93588
1273493607572,2.92891
1273493667572,2.89264
1273493727572,2.91569
1273493787572,2.93225
1273493847572,2.94244
1273493907572,2.92228
1273493967572,2.93810
1273494027572,2.91474
1273494087572,2.91358
1273494147572,2.92151
1273494207572,2.90125
1273494267572,2.93381
1273494327572,2.93695
1273494387572,2.91679
1273494447572,2.90852
1273494507572,3.05500
1273494567572,2.94866
1273494627572,2.93251
1273494687572,2.95055
1273494747572,2.93836
1273494807572,2.94480
1273494867572,2.93483
1273494927572,2.93340
1273494987572,2.90104
1273495047572,2.92019
1273495107572,2.93114
1273495167572,2.89262
1273495227572,2.91535
1273495287572,2.91162
1273495347572,2.93834
1273495407572,2.90243
1273495467572,2.91296
1273495527572,2.90168
1273495587572,2.93027
1273495647572,2.89645
1273495707572,2.89668
1273495767572,2.92793
1273495827572,2.89946
1273495887572,2.89383
1273495947572,2.88522
1273496007572,2.91326
1273496067572,2.90752
1273496127572,2.92337
1273496187572,2.91722
1273496247572,2.92656
1273496307572,2.91171
1273496367572,2.89562
1273496427580,2.90254
1273496487580,2.90983
1273497027580,2.91953
1273497087580,2.91166
1273497147580,2.92368
1273497207580,2.90459
1273497267580,2.96396
1273497327580,2.92663
1273497387580,2.92684
1273497447580,2.90556
1273497507580,2.90747
1273497567580,2.89706
1273497627580,2.93273
1273497687580,2.90614
1273497747580,2.89298
1273497807580,2.92487
1273497867580,2.90358
1273497927580,2.92423
1273497987580,2.88773
1273498047580,2.89013
1273498107580,2.90154
1273498167580,2.91394
1273498227580,2.88493
1273498287580,2.94282
1273498347580,2.91209
1273498407580,2.89439
1273498467580,2.92000
1273498527580,2.91282
1273498587580,2.88882
1273498647580,2.89493
1273498707580,2.92525
1273498767580,2.93470
1273498827580,2.91088
1273498887580,2.88182
1273498947580,2.92960
1273499007580,2.88463
1273499067580,2.90441
1273499127580,2.88075
1273499187580,2.89820
1273499247580,2.91400
1273499307580,2.90780
1273499367580,2.91791
1273499427580,2.91400
1273499487580,2.90897
1273499547580,2.89522
1273499607580,2.91432
1273499667580,2.92352
1273499727580,2.93085
1273499787580,2.90638
1273499847580,2.92552
1273499907580,2.90879
1273499967580,2.89928
1273500027603,2.89375
1273500087603,2.93015
1273500147603,2.90614
1273500207603,2.91826
1273500267603,2.90725
1273500327603,2.91496
1273500387603,2.90097
1273500447603,2.91337
1273500507603,2.95074
1273500567603,2.90459
1273500627603,2.93164
1273500687603,2.93095
1273500747603,2.92011
1273500807603,2.97582
1273500867603,2.94860
1273500927603,2.92479
1273500987603,2.90256
1273501047603,2.89445
1273501107603,2.91138
1273501167603,2.94756
1273501227603,2.93020
1273501287603,2.92116
1273501347603,2.93308
1273501407603,2.90813
1273501467603,2.94453
1273501527603,2.92405
1273501587603,2.94772
1273501647603,2.94267
1273501707603,2.93352
1273501767603,2.92682
1273501827603,2.91319
1273501887603,2.95040
1273501947603,2.92377
1273502007603,2.94812
1273502067603,2.94006
1273502127603,2.93717
1273502187603,2.91827
1273502247603,2.94429
1273502307603,2.92285
1273502367603,2.94013
1273502427603,2.91153
1273502487603,2.93658
1273502547603,2.93426
1273502607603,2.91746
1273502667603,2.91288
1273502727603,2.92825
1273502787603,2.94089
1273502847603,2.92134
1273502907603,2.92287
1273502967603,2.92271
1273503027603,2.95243
1273503087603,2.95471
1273503147603,2.93459
1273503207603,2.92095
1273503267603,2.94350
1273503327603,2.92521
1273503387603,2.94886
1273503447603,2.93420
1273503507603,2.94661
1273503567603,2.91636
1273503627612,2.92661
1273503687611,2.94523
1273503747611,2.93437
1273503807611,2.93932
1273503867611,2.94367
1273503927611,2.92030
1273503987611,2.95337
1273504047611,2.92125
1273504107611,2.93137
1273504167611,2.92787
1273504227611,2.93132
1273504287611,2.93847
1273504347611,2.94893
1273504407611,2.93874
1273504467611,2.94007
1273504527611,2.96296
1273504587611,2.95081
1273504647611,2.98211
1273504707611,2.94183
1273504767611,2.93868
1273504827611,2.95000
1273504887611,2.92760
1273504947611,2.91721
1273505007611,2.96067
1273505067611,2.93203
1273505127611,2.96458
1273505187611,2.94981
1273505247611,2.95135
1273505307611,2.97832
1273505367611,2.96420
1273505427611,2.96452
1273505487611,2.95821
1273505547611,2.94814
1273505607611,2.92489
1273505667611,2.94437
1273505727611,2.95012
1273505787611,2.93902
1273505847611,2.97000
1273505907611,2.93308
1273505967611,2.97170
1273506027611,2.95937
1273506087611,2.95962
1273506147611,2.93253
1273506207611,2.98888
1273506267611,2.93337
1273506327612,2.94330
1273506387611,2.95004
1273506447611,2.95639
1273506507611,2.96637
1273506567611,2.95911
1273506627611,2.95320
1273506687611,2.93688
1273506747611,2.97338
1273506807611,2.97386
1273506867611,2.92909
1273506927611,2.97878
1273506987611,2.95680
1273507047611,2.93745
1273507107611,2.98884
1273507167611,2.97434
1273507227620,2.95706
1273507287620,2.94174
1273507347620,2.95249
1273507407620,2.97222
1273507467620,2.97045
1273507527620,2.97698
1273507587620,2.95790
1273507647620,2.96798
1273507707620,2.94194
1273507767620,2.96198
1273507827620,2.97898
1273507887620,2.95990
1273507947620,2.94453
1273508007620,2.97682
1273508067620,2.94016
1273508127620,2.93550
1273508187620,2.95653
1273508247620,2.96031
1273508307620,2.97918
1273508367620,2.97091
1273508427620,2.94832
1273508487620,2.95984
1273508547620,2.99596
1273508607620,2.97483
1273508667620,2.97401
1273508727620,2.94417
1273508787620,2.93991
1273508847620,2.96216
1273508907620,2.96406
1273508967620,2.96825
1273509027620,2.96797
1273509087620,2.95879
1273509147620,2.93724
1273509207620,2.96448
1273509267620,2.95889
1273509327620,2.95326
1273509387620,2.93813
1273509447620,2.94986
1273509507620,2.98316
1273509567620,2.97441
1273509627620,2.97773
1273509687620,2.96719
1273509747620,2.96960
1273509807620,2.96330
1273509867620,2.93623
1273509927620,2.96694
1273509987620,2.99191
1273510047620,2.95210
1273510107620,2.96786
1273510167620,2.93946
1273510227620,2.97084
1273510287620,2.93512
1273510347620,3.00885
1273510407620,2.96631
1273510467620,2.96536
1273510527620,2.93668
1273510587620,2.96871
1273510647620,2.96120
1273510707620,3.00753
1273510767620,2.97771
1273510827628,2.94794
1273510887628,2.96590
1273510947628,2.98143
1273511007628,2.98983
1273511067628,2.95655
1273511127628,2.94805
1273511187628,2.95824
1273511247628,2.95902
1273511307628,2.95361
1273511367628,2.97317
1273511427628,2.94497
1273511487628,2.98124
1273511547628,2.97747
1273511607628,2.98882
1273511667628,2.98392
1273511727628,2.97842
1273511787628,2.94465
1273511847628,2.99335
1273511907628,2.97944
1273511967628,2.96585
1273512027628,2.97427
1273512087628,2.96620
1273512147628,2.93912
1273512207628,2.98792
1273512267628,2.95086
1273512327628,2.96769
1273512387628,2.95464
1273512447628,2.97912
1273512507628,2.96365
1273512567628,3.01424
1273512627628,2.97699
1273512687628,2.97871
1273512747628,2.95025
1273512807628,2.97617
1273512867628,2.98089
1273512927628,2.99616
1273512987628,2.96457
1273513047628,2.95785
1273513107628,2.99243
1273513167628,2.93738
1273513227628,2.96895
1273513287628,2.95790
1273513347628,3.00118
1273513407628,2.93282
1273513467628,2.97486
1273513527628,2.95130
1273513587628,2.95935
1273513647628,2.96988
1273513707628,2.95409
1273513767628,2.95021
1273513827628,2.96269
1273513887628,2.92106
1273513947628,2.95319
1273514007628,2.95354
1273514067628,2.97899
1273514127628,2.95683
1273514187628,2.97181
1273514247628,2.96757
1273514307628,2.95568
1273514367628,2.94133
1273514427637,2.93353
1273514487637,2.97961
1273514547637,2.96371
1273514607637,2.93339
1273514667637,2.93954
1273514727637,2.93385
1273514787637,2.96925
1273514847637,2.95107
1273514907637,2.95472
1273514967637,2.92671
1273515027637,2.96573
1273515087637,2.95910
1273515147637,2.97708
1273515207637,2.93854
1273515267637,2.98620
1273515327637,2.94376
1273515387637,2.95322
1273515447637,2.98472